QPF
0.00 0.00 0.01 0.01 0.00 0.01 0.02 0.02 0.01 0.02 0.02 0.03 0.06 0.08 0.06 0.02 0.01 0.00 0.00 0.00 0.01 0.01 0.02 0.03 0.04 0.06 0.05 0.04 0.03 0.02 0.01 0.01 0.01 0.01 0.01 0.01 0.00 0.00 0.01 0.02 0.05 0.06 0.01
0.00 0.00 0.00 0.01 0.01 0.01 0.02 0.02 0.01 0.00 0.01 0.01 0.02 0.02 0.02 0.01 0.01 0.01 0.01 0.01 0.01 0.01 0.02 0.02 0.03 0.05 0.05 0.03 0.03 0.01 0.00 0.00 0.00 0.00 0.00 0.02 0.02 0.01 0.02 0.02 0.06 0.17 0.06
0.00 0.00 0.00 0.01 0.01 0.01 0.01 0.02 0.01 0.00 0.00 0.00 0.01 0.01 0.01 0.00 0.01 0.01 0.02 0.03 0.06 0.08 0.08 0.08 0.09 0.11 0.10 0.06 0.03 0.01 0.00 0.00 0.00 0.00 0.01 0.03 0.08 0.04 0.03 0.02 0.02 0.08 0.10
0.00 0.00 0.01 0.02 0.02 0.01 0.01 0.02 0.01 0.01 0.00 0.00 0.01 0.01 0.01 0.01 0.01 0.01 0.02 0.04 0.08 0.12 0.15 0.16 0.15 0.13 0.10 0.06 0.03 0.02 0.01 0.00 0.00 0.01 0.00 0.01 0.09 0.11 0.06 0.06 0.06 0.06 0.10
0.00 0.00 0.00 0.01 0.01 0.01 0.01 0.01 0.01 0.01 0.01 0.01 0.01 0.02 0.02 0.03 0.02 0.03 0.03 0.04 0.06 0.10 0.11 0.09 0.09 0.09 0.08 0.05 0.02 0.01 0.01 0.00 0.00 0.00 0.00 0.02 0.14 0.15 0.06 0.04 0.05 0.06 0.10
0.00 0.00 0.00 0.01 0.02 0.02 0.01 0.02 0.02 0.01 0.01 0.01 0.02 0.04 0.05 0.05 0.05 0.06 0.07 0.08 0.08 0.09 0.09 0.07 0.07 0.06 0.07 0.03 0.01 0.02 0.01 0.00 0.00 0.00 0.03 0.04 0.10 0.10 0.11 0.10 0.07 0.06 0.08
0.00 0.00 0.00 0.01 0.03 0.03 0.03 0.03 0.04 0.04 0.05 0.04 0.05 0.08 0.08 0.08 0.08 0.08 0.09 0.10 0.10 0.09 0.07 0.07 0.09 0.09 0.06 0.02 0.01 0.01 0.00 0.00 0.00 0.03 0.05 0.12 0.15 0.14 0.14 0.10 0.06 0.05 0.05
0.00 0.00 0.00 0.01 0.02 0.04 0.06 0.09 0.10 0.08 0.07 0.05 0.06 0.09 0.08 0.07 0.06 0.05 0.05 0.06 0.07 0.08 0.09 0.06 0.04 0.03 0.02 0.01 0.00 0.00 0.00 0.00 0.01 0.03 0.05 0.06 0.06 0.08 0.07 0.03 0.01 0.01 0.00
0.00 0.00 0.00 0.00 0.01 0.06 0.10 0.12 0.10 0.08 0.06 0.05 0.07 0.10 0.09 0.06 0.03 0.03 0.05 0.05 0.04 0.05 0.03 0.01 0.01 0.00 0.00 0.00 0.00 0.00 0.00 0.01 0.01 0.01 0.01 0.01 0.02 0.01 0.01 0.00 0.00 0.00 0.00
0.00 0.00 0.00 0.00 0.02 0.07 0.09 0.08 0.07 0.05 0.04 0.04 0.06 0.07 0.06 0.04 0.03 0.03 0.02 0.01 0.02 0.04 0.05 0.02 0.00 0.00 0.00 0.00 0.00 0.00 0.00 0.00 0.00 0.00 0.00 0.00 0.00 0.00 0.00 0.00 0.00 0.00 0.00
0.00 0.00 0.00 0.00 0.00 0.02 0.02 0.01 0.02 0.02 0.02 0.02 0.03 0.04 0.04 0.03 0.03 0.03 0.02 0.03 0.06 0.07 0.05 0.01 0.00 0.00 0.00 0.00 0.00 0.00 0.00 0.00 0.00 0.00 0.00 0.00 0.00 0.00 0.00 0.00 0.00 0.00 0.00
0.00 0.00 0.00 0.00 0.00 0.00 0.01 0.01 0.02 0.02 0.02 0.02 0.02 0.02 0.02 0.03 0.04 0.04 0.04 0.06 0.06 0.04 0.01 0.00 0.00 0.00 0.00 0.00 0.00 0.00 0.00 0.00 0.00 0.00 0.00 0.00 0.00 0.00 0.00 0.00 0.00 0.00 0.00
0.00 0.00 0.00 0.00 0.00 0.01 0.01 0.02 0.02 0.02 0.03 0.02 0.01 0.01 0.01 0.02 0.03 0.03 0.03 0.02 0.01 0.01 0.00 0.00 0.00 0.00 0.00 0.00 0.00 0.00 0.00 0.00 0.00 0.00 0.00 0.00 0.00 0.00 0.00 0.00 0.00 0.00 0.00
0.00 0.00 0.00 0.00 0.01 0.01 0.01 0.01 0.01 0.01 0.01 0.01 0.01 0.01 0.01 0.01 0.01 0.00 0.00 0.00 0.00 0.00 0.00 0.00 0.00 0.00 0.00 0.00 0.00 0.00 0.00 0.00 0.00 0.00 0.00 0.00 0.00 0.00 0.00 0.01 0.01 0.01 0.01
0.00 0.00 0.00 0.00 0.01 0.01 0.00 0.00 0.00 0.00 0.00 0.00 0.01 0.02 0.02 0.02 0.02 0.02 0.01 0.01 0.00 0.00 0.00 0.00 0.00 0.00 0.00 0.00 0.00 0.00 0.00 0.00 0.00 0.00 0.00 0.00 0.00 0.00 0.00 0.00 0.00 0.00 0.01
0.00 0.00 0.00 0.00 0.00 0.00 0.00 0.00 0.00 0.00 0.00 0.00 0.00 0.01 0.01 0.02 0.07 0.08 0.04 0.02 0.00 0.00 0.00 0.00 0.00 0.00 0.00 0.00 0.00 0.00 0.00 0.00 0.00 0.00 0.00 0.00 0.00 0.00 0.00 0.00 0.00 0.00 0.00
0.00 0.00 0.00 0.00 0.00 0.00 0.00 0.00 0.02 0.04 0.03 0.01 0.00 0.00 0.00 0.01 0.02 0.03 0.02 0.01 0.00 0.00 0.00 0.00 0.00 0.00 0.00 0.00 0.00 0.00 0.00 0.00 0.01 0.01 0.00 0.00 0.00 0.00 0.00 0.00 0.00 0.00 0.00
0.00 0.00 0.00 0.00 0.00 0.00 0.00 0.01 0.04 0.05 0.03 0.01 0.01 0.00 0.00 0.00 0.00 0.00 0.00 0.00 0.00 0.00 0.00 0.00 0.00 0.00 0.00 0.01 0.02 0.02 0.02 0.02 0.02 0.02 0.02 0.02 0.02 0.02 0.02 0.02 0.01 0.01 0.01
0.00 0.00 0.00 0.00 0.00 0.00 0.01 0.01 0.02 0.02 0.01 0.01 0.01 0.01 0.00 0.00 0.00 0.00 0.00 0.00 0.00 0.00 0.00 0.00 0.00 0.00 0.00 0.01 0.01 0.01 0.01 0.01 0.01 0.01 0.01 0.01 0.01 0.01 0.02 0.02 0.02 0.01 0.01
0.00 0.00 0.00 0.00 0.00 0.01 0.01 0.01 0.01 0.01 0.01 0.01 0.01 0.00 0.00 0.00 0.00 0.00 0.00 0.00 0.00 0.00 0.00 0.00 0.00 0.00 0.00 0.00 0.00 0.00 0.00 0.01 0.01 0.01 0.02 0.01 0.01 0.01 0.00 0.00 0.00 0.00 0.00
0.00 0.00 0.00 0.00 0.00 0.01 0.02 0.02 0.01 0.01 0.01 0.00 0.00 0.00 0.00 0.00 0.00 0.00 0.00 0.00 0.00 0.00 0.00 0.00 0.00 0.00 0.00 0.00 0.00 0.00 0.00 0.00 0.00 0.00 0.00 0.00 0.00 0.00 0.00 0.00 0.00 0.00 0.00
0.02 0.00 0.00 0.00 0.00 0.00 0.01 0.01 0.01 0.00 0.00 0.00 0.00 0.00 0.00 0.00 0.00 0.00 0.00 0.00 0.00 0.00 0.00 0.00 0.00 0.00 0.00 0.00 0.00 0.00 0.00 0.00 0.00 0.00 0.00 0.00 0.00 0.00 0.00 0.00 0.00 0.00 0.00
0.05 0.03 0.01 0.00 0.00 0.01 0.00 0.00 0.00 0.00 0.00 0.00 0.00 0.00 0.00 0.00 0.00 0.00 0.00 0.00 0.00 0.00 0.00 0.00 0.00 0.00 0.00 0.00 0.00 0.00 0.00 0.00 0.00 0.00 0.00 0.00 0.00 0.00 0.00 0.00 0.00 0.00 0.00
0.09 0.06 0.03 0.03 0.03 0.02 0.01 0.00 0.00 0.00 0.00 0.00 0.00 0.00 0.00 0.00 0.00 0.00 0.00 0.00 0.00 0.00 0.00 0.00 0.00 0.00 0.00 0.00 0.00 0.00 0.00 0.00 0.01 0.00 0.00 0.00 0.00 0.00 0.00 0.00 0.00 0.00 0.00
0.10 0.07 0.06 0.05 0.04 0.02 0.02 0.01 0.01 0.00 0.00 0.00 0.00 0.00 0.00 0.00 0.00 0.00 0.00 0.00 0.00 0.00 0.00 0.00 0.00 0.00 0.00 0.00 0.00 0.00 0.00 0.00 0.01 0.01 0.01 0.00 0.00 0.00 0.00 0.00 0.00 0.00 0.00
0.09 0.07 0.06 0.04 0.02 0.01 0.01 0.00 0.00 0.00 0.00 0.00 0.00 0.00 0.00 0.00 0.00 0.00 0.00 0.00 0.00 0.00 0.00 0.00 0.00 0.00 0.00 0.00 0.00 0.00 0.00 0.00 0.00 0.00 0.00 0.00 0.00 0.00 0.00 0.00 0.00 0.00 0.00
MSLP
1012.84 1012.84 1013.03 1013.37 1013.77 1014.15 1014.45 1014.62 1014.67 1014.66 1014.66 1014.73 1014.93 1015.25 1015.67 1016.12 1016.54 1016.85 1017.03 1017.08 1017.04 1016.97 1016.93 1016.95 1017.04 1017.20 1017.39 1017.56 1017.67 1017.71 1017.67 1017.59 1017.50 1017.43 1017.42 1017.46 1017.55 1017.66 1017.79 1017.90 1017.99 1018.05 1018.11
1012.76 1012.83 1013.07 1013.46 1013.90 1014.32 1014.63 1014.81 1014.87 1014.87 1014.86 1014.94 1015.13 1015.45 1015.86 1016.30 1016.70 1016.98 1017.13 1017.15 1017.10 1017.02 1016.98 1017.01 1017.14 1017.33 1017.55 1017.73 1017.84 1017.87 1017.80 1017.68 1017.54 1017.43 1017.38 1017.40 1017.48 1017.60 1017.74 1017.87 1017.97 1018.05 1018.12
1012.56 1012.69 1012.99 1013.44 1013.94 1014.40 1014.77 1014.99 1015.09 1015.11 1015.13 1015.21 1015.39 1015.69 1016.07 1016.45 1016.79 1017.02 1017.12 1017.11 1017.04 1016.97 1016.96 1017.03 1017.20 1017.43 1017.67 1017.86 1017.95 1017.94 1017.83 1017.65 1017.46 1017.30 1017.22 1017.22 1017.30 1017.43 1017.59 1017.74 1017.87 1017.97 1018.07
1012.29 1012.47 1012.83 1013.34 1013.90 1014.43 1014.86 1015.15 1015.31 1015.38 1015.43 1015.53 1015.71 1015.97 1016.28 1016.60 1016.86 1017.03 1017.08 1017.05 1016.98 1016.93 1016.95 1017.07 1017.28 1017.55 1017.79 1017.98 1018.04 1017.98 1017.81 1017.57 1017.32 1017.13 1017.02 1017.01 1017.09 1017.24 1017.42 1017.59 1017.76 1017.90 1018.02
1012.01 1012.24 1012.66 1013.22 1013.84 1014.43 1014.92 1015.28 1015.51 1015.65 1015.75 1015.86 1016.03 1016.26 1016.52 1016.77 1016.96 1017.07 1017.08 1017.03 1016.97 1016.96 1017.03 1017.20 1017.44 1017.72 1017.97 1018.11 1018.13 1018.01 1017.78 1017.49 1017.20 1016.97 1016.85 1016.85 1016.95 1017.12 1017.33 1017.53 1017.72 1017.89 1018.04
1011.81 1012.07 1012.53 1013.13 1013.79 1014.43 1014.97 1015.39 1015.68 1015.88 1016.03 1016.17 1016.35 1016.55 1016.77 1016.96 1017.10 1017.16 1017.15 1017.11 1017.07 1017.10 1017.22 1017.42 1017.69 1017.96 1018.18 1018.28 1018.23 1018.05 1017.76 1017.43 1017.12 1016.89 1016.79 1016.81 1016.93 1017.13 1017.37 1017.59 1017.80 1017.98 1018.14
1011.74 1012.03 1012.50 1013.11 1013.79 1014.44 1015.01 1015.47 1015.80 1016.04 1016.23 1016.40 1016.59 1016.79 1016.98 1017.15 1017.25 1017.30 1017.29 1017.26 1017.27 1017.33 1017.48 1017.71 1017.97 1018.22 1018.39 1018.43 1018.32 1018.08 1017.75 1017.40 1017.09 1016.89 1016.82 1016.89 1017.06 1017.29 1017.54 1017.77 1017.98 1018.14 1018.29
1011.83 1012.13 1012.60 1013.19 1013.84 1014.47 1015.03 1015.48 1015.83 1016.09 1016.31 1016.51 1016.71 1016.92 1017.11 1017.27 1017.37 1017.43 1017.44 1017.44 1017.48 1017.58 1017.75 1017.98 1018.22 1018.43 1018.53 1018.51 1018.34 1018.05 1017.71 1017.37 1017.09 1016.95 1016.94 1017.06 1017.27 1017.54 1017.79 1018.02 1018.19 1018.32 1018.43
1012.04 1012.35 1012.81 1013.35 1013.94 1014.51 1015.01 1015.42 1015.75 1016.01 1016.24 1016.46 1016.68 1016.90 1017.11 1017.28 1017.40 1017.48 1017.52 1017.56 1017.63 1017.75 1017.93 1018.14 1018.35 1018.50 1018.54 1018.45 1018.24 1017.94 1017.60 1017.29 1017.08 1017.00 1017.07 1017.26 1017.52 1017.80 1018.05 1018.25 1018.38 1018.46 1018.50
1012.33 1012.65 1013.07 1013.55 1014.05 1014.52 1014.94 1015.28 1015.56 1015.81 1016.03 1016.26 1016.50 1016.74 1016.96 1017.15 1017.30 1017.40 1017.47 1017.54 1017.63 1017.77 1017.94 1018.13 1018.29 1018.39 1018.38 1018.25 1018.02 1017.72 1017.41 1017.16 1017.02 1017.02 1017.16 1017.41 1017.71 1018.00 1018.24 1018.40 1018.48 1018.49 1018.47
1012.63 1012.96 1013.34 1013.74 1014.14 1014.50 1014.81 1015.07 1015.30 1015.50 1015.71 1015.94 1016.19 1016.45 1016.69 1016.90 1017.07 1017.19 1017.28 1017.37 1017.47 1017.61 1017.76 1017.93 1018.05 1018.11 1018.07 1017.92 1017.69 1017.41 1017.15 1016.96 1016.89 1016.97 1017.17 1017.47 1017.79 1018.09 1018.31 1018.43 1018.46 1018.41 1018.33
1012.89 1013.22 1013.56 1013.88 1014.18 1014.43 1014.65 1014.83 1014.99 1015.16 1015.36 1015.59 1015.85 1016.11 1016.36 1016.58 1016.76 1016.89 1016.99 1017.08 1017.18 1017.31 1017.45 1017.59 1017.70 1017.74 1017.68 1017.54 1017.32 1017.08 1016.87 1016.74 1016.73 1016.86 1017.10 1017.42 1017.75 1018.04 1018.24 1018.34 1018.32 1018.23 1018.12
1013.10 1013.42 1013.71 1013.97 1014.17 1014.34 1014.47 1014.59 1014.71 1014.87 1015.06 1015.30 1015.56 1015.83 1016.08 1016.29 1016.46 1016.58 1016.67 1016.76 1016.86 1016.97 1017.11 1017.23 1017.33 1017.36 1017.32 1017.19 1017.00 1016.80 1016.63 1016.54 1016.56 1016.72 1016.97 1017.29 1017.61 1017.89 1018.07 1018.14 1018.11 1018.01 1017.88
1013.25 1013.56 1013.81 1014.00 1014.14 1014.24 1014.33 1014.42 1014.54 1014.70 1014.90 1015.15 1015.42 1015.69 1015.93 1016.13 1016.28 1016.38 1016.46 1016.52 1016.61 1016.71 1016.83 1016.96 1017.05 1017.10 1017.07 1016.96 1016.81 1016.63 1016.49 1016.41 1016.44 1016.58 1016.81 1017.10 1017.40 1017.65 1017.81 1017.88 1017.85 1017.76 1017.64
1013.39 1013.67 1013.87 1014.01 1014.11 1014.18 1014.26 1014.37 1014.51 1014.71 1014.94 1015.22 1015.50 1015.76 1015.99 1016.16 1016.29 1016.36 1016.41 1016.46 1016.53 1016.62 1016.74 1016.86 1016.96 1017.02 1017.00 1016.92 1016.78 1016.62 1016.47 1016.38 1016.38 1016.47 1016.65 1016.89 1017.14 1017.36 1017.52 1017.59 1017.58 1017.51 1017.42
1013.53 1013.77 1013.93 1014.03 1014.11 1014.20 1014.31 1014.46 1014.67 1014.92 1015.21 1015.52 1015.81 1016.07 1016.29 1016.44 1016.53 1016.58 1016.61 1016.63 1016.68 1016.76 1016.87 1016.98 1017.08 1017.14 1017.13 1017.06 1016.92 1016.75 1016.58 1016.44 1016.38 1016.40 1016.51 1016.67 1016.87 1017.05 1017.20 1017.28 1017.30 1017.27 1017.20
1013.71 1013.90 1014.01 1014.10 1014.18 1014.30 1014.47 1014.70 1014.98 1015.31 1015.66 1016.01 1016.32 1016.58 1016.78 1016.91 1016.97 1017.00 1017.00 1017.02 1017.05 1017.11 1017.20 1017.30 1017.39 1017.43 1017.41 1017.32 1017.16 1016.96 1016.75 1016.56 1016.42 1016.36 1016.37 1016.46 1016.59 1016.73 1016.86 1016.95 1017.00 1016.99 1016.96
1013.92 1014.05 1014.13 1014.21 1014.31 1014.48 1014.72 1015.03 1015.41 1015.82 1016.23 1016.61 1016.94 1017.19 1017.38 1017.49 1017.54 1017.55 1017.54 1017.54 1017.56 1017.61 1017.67 1017.74 1017.79 1017.81 1017.76 1017.64 1017.45 1017.21 1016.95 1016.69 1016.48 1016.33 1016.25 1016.25 1016.31 1016.40 1016.51 1016.60 1016.66 1016.68 1016.66
1014.13 1014.22 1014.27 1014.35 1014.48 1014.71 1015.03 1015.43 1015.88 1016.36 1016.82 1017.22 1017.56 1017.81 1017.98 1018.08 1018.12 1018.13 1018.13 1018.12 1018.13 1018.16 1018.19 1018.23 1018.23 1018.20 1018.11 1017.95 1017.72 1017.44 1017.14 1016.82 1016.54 1016.31 1016.15 1016.07 1016.05 1016.09 1016.16 1016.23 1016.29 1016.31 1016.30
1014.30 1014.37 1014.42 1014.50 1014.67 1014.95 1015.34 1015.82 1016.34 1016.86 1017.35 1017.77 1018.11 1018.35 1018.51 1018.60 1018.65 1018.67 1018.67 1018.68 1018.69 1018.70 1018.70 1018.69 1018.65 1018.56 1018.42 1018.22 1017.96 1017.65 1017.31 1016.96 1016.63 1016.34 1016.10 1015.94 1015.85 1015.82 1015.83 1015.86 1015.90 1015.91 1015.90
1014.42 1014.49 1014.54 1014.65 1014.86 1015.19 1015.63 1016.16 1016.72 1017.28 1017.78 1018.19 1018.52 1018.75 1018.90 1019.00 1019.06 1019.10 1019.13 1019.16 1019.17 1019.18 1019.15 1019.10 1019.01 1018.87 1018.68 1018.45 1018.17 1017.84 1017.49 1017.13 1016.77 1016.43 1016.14 1015.91 1015.73 1015.62 1015.55 1015.53 1015.52 1015.51 1015.49
1014.48 1014.57 1014.64 1014.77 1015.02 1015.39 1015.87 1016.43 1017.02 1017.59 1018.08 1018.49 1018.79 1019.00 1019.15 1019.26 1019.34 1019.42 1019.48 1019.54 1019.58 1019.58 1019.54 1019.46 1019.33 1019.15 1018.93 1018.67 1018.39 1018.07 1017.73 1017.37 1017.00 1016.64 1016.30 1015.99 1015.74 1015.53 1015.38 1015.27 1015.20 1015.15 1015.11
1014.50 1014.62 1014.72 1014.88 1015.16 1015.56 1016.07 1016.65 1017.25 1017.81 1018.29 1018.68 1018.96 1019.16 1019.30 1019.42 1019.53 1019.64 1019.75 1019.84 1019.91 1019.92 1019.88 1019.78 1019.62 1019.42 1019.18 1018.93 1018.65 1018.36 1018.04 1017.71 1017.35 1016.97 1016.59 1016.22 1015.87 1015.56 1015.30 1015.10 1014.96 1014.86 1014.79
1014.51 1014.67 1014.81 1015.00 1015.30 1015.72 1016.24 1016.84 1017.44 1017.99 1018.46 1018.82 1019.08 1019.26 1019.41 1019.53 1019.67 1019.81 1019.96 1020.09 1020.18 1020.21 1020.17 1020.06 1019.90 1019.69 1019.45 1019.21 1018.95 1018.69 1018.42 1018.11 1017.77 1017.39 1016.97 1016.53 1016.09 1015.68 1015.31 1015.01 1014.78 1014.62 1014.52
1014.58 1014.77 1014.93 1015.15 1015.46 1015.89 1016.43 1017.03 1017.63 1018.17 1018.62 1018.96 1019.20 1019.37 1019.51 1019.64 1019.78 1019.95 1020.12 1020.27 1020.39 1020.43 1020.40 1020.30 1020.13 1019.93 1019.70 1019.47 1019.25 1019.03 1018.79 1018.51 1018.19 1017.80 1017.35 1016.86 1016.34 1015.83 1015.36 1014.96 1014.64 1014.41 1014.27
1014.72 1014.94 1015.11 1015.34 1015.66 1016.11 1016.65 1017.25 1017.84 1018.38 1018.82 1019.14 1019.36 1019.51 1019.63 1019.75 1019.88 1020.05 1020.23 1020.39 1020.51 1020.56 1020.54 1020.44 1020.27 1020.07 1019.86 1019.65 1019.45 1019.26 1019.05 1018.80 1018.50 1018.11 1017.64 1017.10 1016.52 1015.93 1015.38 1014.88 1014.48 1014.19 1013.99
Thickness
5793 5787 5775 5773 5771 5770 5770 5768 5767 5766 5764 5764 5762 5761 5760 5758 5756 5754 5752 5752 5752 5752 5751 5751 5750 5749 5749 5749 5749 5749 5750 5750 5750 5750 5751 5751 5751 5750 5750 5751 5750 5752 5750
5794 5785 5774 5772 5769 5767 5767 5765 5763 5761 5759 5758 5757 5756 5755 5754 5752 5749 5748 5747 5747 5747 5747 5746 5745 5745 5745 5745 5745 5745 5746 5746 5747 5748 5749 5750 5749 5747 5746 5747 5746 5746 5746
5789 5782 5772 5769 5767 5765 5764 5763 5761 5759 5757 5754 5753 5752 5750 5748 5746 5745 5744 5743 5743 5743 5743 5743 5741 5740 5740 5739 5740 5740 5741 5742 5743 5745 5747 5752 5749 5745 5743 5743 5742 5741 5740
5785 5780 5774 5767 5766 5763 5761 5760 5757 5755 5753 5751 5749 5746 5744 5742 5740 5739 5738 5738 5738 5739 5739 5738 5738 5737 5736 5735 5735 5735 5736 5738 5739 5741 5748 5750 5748 5742 5740 5738 5737 5736 5735
5781 5777 5771 5766 5764 5761 5758 5755 5752 5751 5748 5746 5744 5741 5739 5737 5735 5734 5733 5733 5733 5734 5734 5733 5733 5733 5731 5731 5731 5730 5731 5733 5735 5738 5744 5742 5739 5735 5733 5733 5732 5731 5729
5777 5774 5768 5763 5761 5758 5754 5750 5748 5746 5743 5741 5739 5737 5735 5733 5731 5730 5729 5729 5729 5730 5729 5729 5728 5727 5726 5725 5725 5725 5725 5727 5731 5739 5736 5735 5732 5727 5725 5725 5725 5724 5722
5775 5772 5766 5759 5756 5754 5751 5748 5746 5744 5740 5737 5735 5733 5732 5730 5728 5728 5727 5727 5727 5726 5725 5725 5724 5721 5720 5719 5719 5719 5719 5721 5727 5732 5730 5727 5723 5720 5719 5717 5716 5716 5715
5773 5770 5761 5754 5751 5749 5747 5744 5743 5740 5737 5734 5732 5731 5729 5727 5726 5725 5725 5724 5724 5723 5721 5720 5719 5717 5715 5714 5713 5713 5714 5715 5720 5721 5722 5720 5713 5711 5711 5711 5709 5709 5708
5773 5769 5761 5754 5748 5744 5742 5739 5737 5735 5734 5732 5731 5730 5728 5726 5725 5723 5722 5721 5721 5720 5718 5717 5715 5712 5710 5709 5708 5708 5708 5710 5715 5716 5713 5711 5705 5703 5702 5702 5701 5701 5701
5773 5767 5760 5754 5748 5743 5739 5736 5734 5733 5732 5730 5729 5727 5726 5725 5724 5721 5720 5718 5716 5714 5713 5711 5710 5708 5706 5705 5704 5704 5705 5706 5713 5710 5709 5703 5698 5697 5696 5694 5694 5694 5693
5766 5763 5758 5752 5748 5745 5742 5736 5735 5733 5730 5728 5727 5725 5724 5727 5725 5721 5717 5713 5710 5708 5706 5706 5705 5703 5702 5702 5701 5701 5702 5708 5711 5705 5701 5694 5691 5690 5689 5688 5687 5686 5685
5764 5762 5760 5755 5750 5749 5744 5738 5737 5736 5731 5730 5729 5727 5726 5722 5720 5717 5711 5708 5705 5703 5702 5702 5701 5701 5702 5705 5703 5700 5704 5702 5704 5701 5697 5689 5685 5684 5683 5682 5681 5680 5679
5765 5760 5762 5755 5751 5750 5745 5741 5739 5736 5731 5729 5726 5723 5720 5717 5715 5713 5711 5707 5704 5702 5704 5700 5702 5703 5702 5700 5699 5701 5699 5699 5700 5698 5692 5683 5679 5677 5676 5675 5674 5673 5672
5764 5760 5758 5753 5748 5746 5745 5740 5736 5734 5730 5728 5722 5719 5716 5714 5711 5711 5707 5706 5705 5704 5700 5700 5700 5698 5695 5694 5693 5693 5694 5693 5692 5689 5683 5677 5671 5669 5667 5666 5664 5663 5663
5760 5755 5753 5751 5745 5740 5738 5736 5734 5730 5728 5723 5719 5715 5712 5712 5710 5709 5706 5701 5702 5700 5698 5696 5695 5692 5689 5689 5689 5687 5686 5685 5682 5680 5677 5670 5665 5660 5658 5656 5655 5654 5653
5755 5752 5750 5746 5741 5737 5734 5732 5730 5728 5722 5721 5715 5711 5707 5706 5703 5701 5698 5695 5694 5692 5690 5687 5687 5683 5683 5682 5679 5677 5674 5674 5672 5668 5665 5661 5655 5651 5648 5646 5645 5644 5644
5751 5749 5745 5744 5741 5736 5734 5731 5727 5723 5718 5715 5709 5703 5699 5698 5695 5693 5692 5689 5686 5683 5680 5678 5677 5675 5673 5671 5669 5667 5665 5662 5660 5655 5651 5648 5645 5640 5637 5634 5632 5632 5633
5747 5745 5744 5745 5740 5734 5730 5726 5722 5717 5711 5707 5702 5696 5692 5688 5686 5684 5684 5681 5675 5675 5673 5670 5667 5665 5662 5659 5657 5655 5653 5650 5646 5642 5638 5635 5632 5631 5628 5624 5621 5619 5618
5741 5741 5740 5740 5737 5731 5724 5718 5714 5708 5704 5700 5695 5689 5683 5680 5677 5675 5671 5667 5666 5665 5662 5659 5656 5651 5649 5645 5644 5643 5641 5638 5635 5631 5628 5624 5620 5618 5615 5611 5609 5607 5605
5738 5736 5735 5733 5730 5725 5719 5713 5707 5702 5697 5692 5686 5680 5676 5672 5668 5665 5661 5656 5656 5654 5649 5645 5640 5637 5633 5630 5629 5628 5626 5624 5621 5617 5613 5610 5607 5604 5602 5599 5596 5596 5594
5734 5731 5729 5726 5721 5718 5713 5708 5701 5694 5690 5684 5676 5670 5666 5662 5658 5655 5653 5648 5645 5642 5636 5633 5628 5627 5623 5620 5615 5616 5616 5614 5611 5606 5600 5596 5593 5590 5588 5585 5583 5583 5583
5728 5725 5722 5719 5716 5713 5707 5700 5692 5685 5679 5672 5664 5659 5656 5652 5648 5645 5639 5638 5633 5628 5625 5620 5615 5612 5611 5606 5600 5598 5600 5602 5599 5595 5586 5580 5576 5574 5573 5572 5570 5569 5569
5724 5720 5716 5712 5707 5703 5696 5688 5679 5672 5667 5660 5653 5648 5644 5641 5637 5633 5629 5625 5620 5619 5615 5606 5599 5597 5594 5589 5585 5578 5578 5580 5572 5569 5564 5560 5557 5557 5558 5559 5558 5558 5559
5718 5713 5707 5702 5697 5691 5686 5680 5674 5667 5659 5649 5643 5638 5633 5628 5624 5620 5616 5611 5605 5603 5597 5593 5586 5579 5575 5572 5566 5558 5550 5546 5542 5546 5543 5542 5543 5543 5545 5546 5547 5547 5548
5710 5704 5698 5692 5686 5682 5675 5668 5662 5656 5648 5641 5633 5625 5620 5617 5611 5607 5602 5597 5591 5587 5580 5574 5568 5563 5560 5554 5547 5541 5534 5528 5524 5524 5528 5529 5532 5535 5536 5537 5537 5537 5537
5698 5692 5688 5681 5675 5670 5664 5658 5651 5643 5637 5630 5622 5616 5611 5607 5601 5595 5589 5583 5578 5572 5565 5559 5552 5550 5542 5534 5528 5525 5521 5516 5514 5514 5516 5518 5523 5526 5526 5526 5526 5526 5527